This is the latest recevied weather packets stored in our database for station/object N4RCT. If no packets are shown the sender has not sent any weather packets the latest 10 day(s).
| Time | Temp. | Humidity | Pressure | Rain* | Wind** | Luminosity | Snow |
|---|---|---|---|---|---|---|---|
| 1778143470 | 17.22° C | 99% | 1009.7 hPa | 0 mm | - | 0 W/m² | - |
| 1778143167 | 17.22° C | 99% | 1009.7 hPa | 0 mm | - | 0 W/m² | - |
| 1778142863 | 17.22° C | 99% | 1009.5 hPa | 0 mm | - | 0 W/m² | - |
| 1778142560 | 17.22° C | 99% | 1009.5 hPa | 1.27 mm | - | 0 W/m² | - |
| 1778142256 | 17.22° C | 99% | 1009.6 hPa | 1.27 mm | - | 0 W/m² | - |
| 1778141953 | 17.22° C | 99% | 1009.3 hPa | 0 mm | - | 0 W/m² | - |
| 1778141649 | 17.22° C | 99% | 1009.9 hPa | 0 mm | - | 0 W/m² | - |
| 1778141346 | 17.22° C | 99% | 1010.1 hPa | 0 mm | - | 0 W/m² | - |
| 1778141042 | 17.22° C | 99% | 1010.1 hPa | 0 mm | - | 0 W/m² | - |
| 1778140738 | 17.22° C | 99% | 1009.7 hPa | 0 mm | - | 0 W/m² | - |
| 1778140434 | 17.22° C | 99% | 1009.4 hPa | 0 mm | - | 0 W/m² | - |
| 1778140130 | 17.22° C | 99% | 1009.5 hPa | 0 mm | - | 0 W/m² | - |
| 1778139828 | 17.22° C | 99% | 1009.8 hPa | 0 mm | - | 0 W/m² | - |
| 1778139525 | 17.22° C | 99% | 1010.1 hPa | 0 mm | - | 0 W/m² | - |
| 1778139221 | 17.22° C | 99% | 1010.1 hPa | 0 mm | - | 0 W/m² | - |
| 1778138919 | 17.22° C | 99% | 1010 hPa | 0 mm | - | 0 W/m² | - |
| 1778138616 | 17.78° C | 99% | 1010.1 hPa | 0 mm | - | 0 W/m² | - |
| 1778138313 | 17.22° C | 99% | 1010.2 hPa | 1.78 mm | - | 0 W/m² | - |
| 1778138010 | 17.78° C | 99% | 1010.1 hPa | 3.05 mm | - | 0 W/m² | - |
| 1778137706 | 17.78° C | 99% | 1010.2 hPa | 3.05 mm | - | 0 W/m² | - |
| 1778137404 | 17.78° C | 99% | 1010.5 hPa | 3.56 mm | - | 0 W/m² | - |
| 1778137101 | 17.78° C | 99% | 1010.7 hPa | 3.05 mm | - | 0 W/m² | - |
| 1778136797 | 17.78° C | 99% | 1010.7 hPa | 6.1 mm | - | 0 W/m² | - |
| 1778136495 | 17.78° C | 99% | 1010.7 hPa | 10.67 mm | - | 0 W/m² | - |
| 1778136193 | 17.78° C | 99% | 1010.1 hPa | 21.08 mm | - | 0 W/m² | - |
* Rain latest hour (hover to see other rain measurements)
** Current wind speed in m/s (hover to see current wind gust speed)